START_TIME,STEP,MOV.,AL01,t_acc.,AL02,t_acc.,E37,t_acc.,H21,t_acc.
1979-03-08 15:00:32.250 ,3,1,0.,24.0,0.,24.0,0.,24.0,0.,24.0
1979-03-08 15:00:56.250 ,2,1,0.,24.0,0.,24.0,2.,24.0,0.,24.0
1979-03-08 15:01:20.250 ,1,1,0.,24.0,0.,24.0,0.,24.0,0.,24.0
1979-03-08 15:01:44.250 ,0,1,0.,24.0,0.,24.0,1.,24.0,0.,24.0
1979-03-08 15:02:08.250 ,0,1,0.,24.0,0.,24.0,0.,24.0,0.,24.0
1979-03-08 15:02:32.250 ,1,1,0.,24.0,0.,24.0,0.,24.0,0.,24.0
1979-03-08 15:02:56.250 ,2,1,0.,24.0,0.,24.0,1.,24.0,0.,24.0
1979-03-08 15:03:20.250 ,3,1,0.,24.0,0.,24.0,0.,24.0,0.,24.0
1979-03-08 15:03:44.250 ,4,1,0.,24.0,0.,24.0,0.,24.0,0.,24.0
1979-03-08 15:04:08.250 ,5,1,0.,24.0,0.,24.0,0.,24.0,0.,24.0
1979-03-08 15:04:32.250 ,6,1,0.,24.0,0.,24.0,0.,24.0,0.,24.0
1979-03-08 15:04:56.250 ,7,1,5.,24.0,0.,24.0,0.,24.0,0.,24.0
1979-03-08 15:05:20.250 ,7,1,12.,24.0,0.,24.0,0.,24.0,0.,24.0
1979-03-08 15:05:44.250 ,6,1,7.,24.0,0.,24.0,0.,24.0,0.,24.0
1979-03-08 15:06:08.250 ,5,1,0.,24.0,0.,24.0,0.,24.0,0.,24.0
1979-03-08 15:06:32.250 ,4,1,0.,24.0,1.,24.0,1.,24.0,0.,24.0
1979-03-08 15:06:56.250 ,3,1,0.,24.0,0.,24.0,0.,24.0,0.,24.0
1979-03-08 15:07:20.250 ,2,1,0.,24.0,0.,24.0,0.,24.0,0.,24.0
1979-03-08 15:07:44.250 ,1,1,0.,24.0,0.,24.0,0.,24.0,0.,24.0
1979-03-08 15:08:08.250 ,0,1,0.,24.0,0.,24.0,0.,24.0,0.,24.0
1979-03-08 15:08:32.250 ,0,1,0.,24.0,0.,24.0,0.,24.0,0.,24.0
1979-03-08 15:08:56.250 ,1,1,0.,24.0,0.,24.0,0.,24.0,0.,24.0
1979-03-08 15:09:20.250 ,2,1,0.,24.0,0.,24.0,0.,24.0,0.,24.0
1979-03-08 15:09:44.250 ,3,1,0.,24.0,0.,24.0,0.,24.0,0.,24.0
1979-03-08 15:10:08.250 ,4,1,1.,24.0,0.,24.0,0.,24.0,0.,24.0
1979-03-08 15:10:32.250 ,5,1,0.,24.0,0.,24.0,0.,24.0,0.,24.0
1979-03-08 15:10:56.250 ,6,1,1.,24.0,0.,24.0,0.,24.0,0.,24.0
1979-03-08 15:11:20.250 ,7,1,0.,24.0,0.,24.0,0.,24.0,0.,24.0
1979-03-08 15:11:44.250 ,7,1,10.,24.0,0.,24.0,0.,24.0,0.,24.0
1979-03-08 15:12:08.250 ,6,1,3.,24.0,0.,24.0,0.,24.0,0.,24.0
1979-03-08 15:12:32.250 ,5,1,0.,24.0,0.,24.0,0.,24.0,0.,24.0
1979-03-08 15:12:56.250 ,4,1,0.,24.0,0.,24.0,0.,24.0,0.,24.0
1979-03-08 15:13:20.250 ,3,1,0.,24.0,0.,24.0,0.,24.0,0.,24.0
1979-03-08 15:13:44.250 ,2,1,0.,24.0,0.,24.0,0.,24.0,0.,24.0
1979-03-08 15:14:08.250 ,1,1,0.,24.0,0.,24.0,0.,24.0,0.,24.0
1979-03-08 15:14:32.250 ,0,1,0.,24.0,0.,24.0,0.,24.0,0.,24.0
1979-03-08 15:14:56.250 ,0,1,0.,24.0,0.,24.0,0.,24.0,0.,24.0
1979-03-08 15:15:20.250 ,1,1,0.,24.0,0.,24.0,0.,24.0,0.,24.0
1979-03-08 15:15:44.250 ,2,1,0.,24.0,0.,24.0,0.,24.0,0.,24.0
1979-03-08 15:16:08.260 ,3,1,0.,24.0,0.,24.0,1.,24.0,0.,24.0
1979-03-08 15:16:32.260 ,4,1,0.,24.0,0.,24.0,1.,24.0,0.,24.0
1979-03-08 15:16:56.260 ,5,1,0.,24.0,0.,24.0,0.,24.0,0.,24.0
1979-03-08 15:17:20.260 ,6,1,0.,24.0,0.,24.0,0.,24.0,0.,24.0
1979-03-08 15:17:44.260 ,7,1,3.,24.0,0.,24.0,1.,24.0,0.,24.0
1979-03-08 15:18:08.260 ,7,1,8.,24.0,0.,24.0,0.,24.0,0.,24.0
1979-03-08 15:18:32.260 ,6,1,10.,24.0,0.,24.0,0.,24.0,0.,24.0
1979-03-08 15:18:56.260 ,5,1,0.,24.0,0.,24.0,0.,24.0,0.,24.0
1979-03-08 15:19:20.260 ,4,1,0.,24.0,0.,24.0,0.,24.0,0.,24.0
1979-03-08 15:19:44.260 ,3,1,0.,24.0,0.,24.0,0.,24.0,0.,24.0
1979-03-08 15:20:08.260 ,2,1,0.,24.0,0.,24.0,0.,24.0,0.,24.0
1979-03-08 15:20:32.260 ,1,1,0.,24.0,0.,24.0,0.,24.0,0.,24.0
1979-03-08 15:20:56.260 ,0,1,0.,24.0,0.,24.0,0.,24.0,0.,24.0
1979-03-08 15:21:20.260 ,0,1,0.,24.0,0.,24.0,0.,24.0,0.,24.0
1979-03-08 15:21:44.260 ,1,1,0.,24.0,0.,24.0,0.,24.0,0.,24.0
1979-03-08 15:22:08.260 ,2,1,0.,24.0,0.,24.0,0.,24.0,0.,24.0
1979-03-08 15:22:32.260 ,3,1,0.,24.0,0.,24.0,0.,24.0,0.,24.0
1979-03-08 15:22:56.260 ,4,1,0.,24.0,0.,24.0,2.,24.0,0.,24.0
1979-03-08 15:23:20.260 ,5,1,0.,24.0,0.,24.0,0.,24.0,0.,24.0
1979-03-08 15:23:44.260 ,6,1,0.,24.0,0.,24.0,0.,24.0,0.,24.0
1979-03-08 15:24:08.260 ,7,1,2.,24.0,0.,24.0,1.,24.0,0.,24.0
1979-03-08 15:24:32.260 ,7,1,14.,24.0,0.,24.0,0.,24.0,0.,24.0
1979-03-08 15:24:56.260 ,6,1,10.,24.0,0.,24.0,0.,24.0,0.,24.0
1979-03-08 15:25:20.260 ,5,1,0.,24.0,1.,24.0,0.,24.0,0.,24.0
1979-03-08 15:25:44.260 ,4,1,1.,24.0,0.,24.0,1.,24.0,0.,24.0
1979-03-08 15:26:08.260 ,3,1,0.,24.0,0.,24.0,0.,24.0,0.,24.0
1979-03-08 15:26:32.260 ,2,1,0.,24.0,0.,24.0,0.,24.0,0.,24.0
1979-03-08 15:26:56.260 ,1,1,0.,24.0,0.,24.0,0.,24.0,0.,24.0
1979-03-08 15:27:20.260 ,1,1,,0,,0,,0,,0
1979-03-08 15:27:44.260 ,0,1,0.,24.0,0.,24.0,0.,24.0,0.,24.0
1979-03-08 15:28:08.260 ,1,1,0.,24.0,0.,24.0,0.,24.0,0.,24.0
1979-03-08 15:28:32.260 ,2,1,0.,24.0,0.,24.0,0.,24.0,0.,24.0
1979-03-08 15:28:56.260 ,3,1,0.,24.0,0.,24.0,0.,24.0,0.,24.0
1979-03-08 15:29:20.260 ,4,1,0.,24.0,0.,24.0,0.,24.0,0.,24.0
1979-03-08 15:29:44.260 ,5,1,0.,24.0,0.,24.0,0.,24.0,0.,24.0
1979-03-08 15:30:08.260 ,6,1,0.,24.0,0.,24.0,0.,24.0,0.,24.0
1979-03-08 15:30:32.260 ,7,1,1.,24.0,0.,24.0,0.,24.0,0.,24.0
1979-03-08 15:30:56.260 ,7,1,12.,24.0,0.,24.0,0.,24.0,0.,24.0
1979-03-08 15:31:20.260 ,6,1,10.,24.0,0.,24.0,0.,24.0,0.,24.0
1979-03-08 15:31:44.260 ,5,1,0.,24.0,0.,24.0,0.,24.0,0.,24.0
1979-03-08 15:32:08.260 ,4,1,2.,24.0,0.,24.0,0.,24.0,0.,24.0
1979-03-08 15:32:32.260 ,3,1,9.,24.0,0.,24.0,0.,24.0,0.,24.0
1979-03-08 15:32:56.260 ,2,1,3.,24.0,0.,24.0,0.,24.0,0.,24.0
1979-03-08 15:33:20.260 ,1,1,0.,24.0,0.,24.0,0.,24.0,0.,24.0
1979-03-08 15:33:44.260 ,0,1,0.,24.0,0.,24.0,0.,24.0,0.,24.0
1979-03-08 15:34:08.260 ,0,1,0.,24.0,0.,24.0,0.,24.0,0.,24.0
1979-03-08 15:34:32.260 ,1,1,0.,24.0,0.,24.0,0.,24.0,0.,24.0
1979-03-08 15:34:56.260 ,2,1,0.,24.0,0.,24.0,1.,24.0,0.,24.0
1979-03-08 15:35:20.260 ,3,1,6.,24.0,2.,24.0,0.,24.0,0.,24.0
1979-03-08 15:35:44.260 ,4,1,34.,24.0,14.,24.0,3.,24.0,0.,24.0
1979-03-08 15:36:08.260 ,5,1,78.,24.0,24.,24.0,2.,24.0,0.,24.0
1979-03-08 15:36:32.260 ,6,1,8.,24.0,1.,24.0,2.,24.0,0.,24.0
1979-03-08 15:36:56.260 ,7,1,0.,24.0,0.,24.0,0.,24.0,0.,24.0
1979-03-08 15:37:20.260 ,7,1,18.,24.0,0.,24.0,0.,24.0,0.,24.0
1979-03-08 15:37:44.260 ,6,1,7.,24.0,0.,24.0,0.,24.0,0.,24.0
1979-03-08 15:38:08.260 ,5,1,6.,24.0,1.,24.0,2.,24.0,0.,24.0
1979-03-08 15:38:32.260 ,4,1,22.,24.0,2.,24.0,2.,24.0,0.,24.0
1979-03-08 15:38:56.260 ,3,1,43.,24.0,19.,24.0,0.,24.0,0.,24.0
1979-03-08 15:39:20.260 ,2,1,40.,24.0,12.,24.0,0.,24.0,0.,24.0
1979-03-08 15:39:44.260 ,1,1,0.,24.0,0.,24.0,0.,24.0,0.,24.0
1979-03-08 15:40:08.260 ,0,1,1.,24.0,1.,24.0,0.,24.0,0.,24.0
1979-03-08 15:40:32.260 ,0,1,0.,24.0,0.,24.0,0.,24.0,0.,24.0
1979-03-08 15:40:56.260 ,1,1,0.,24.0,0.,24.0,0.,24.0,0.,24.0
1979-03-08 15:41:20.260 ,2,1,0.,24.0,0.,24.0,1.,24.0,0.,24.0
1979-03-08 15:41:44.260 ,3,1,0.,24.0,0.,24.0,0.,24.0,0.,24.0
1979-03-08 15:42:08.260 ,4,1,18.,24.0,1.,24.0,0.,24.0,0.,24.0
1979-03-08 15:42:32.260 ,5,1,126.,24.0,3.,24.0,0.,24.0,0.,24.0
1979-03-08 15:42:56.260 ,6,1,56.,24.0,10.,24.0,0.,24.0,0.,24.0
1979-03-08 15:43:20.260 ,7,1,2.,24.0,0.,24.0,0.,24.0,0.,24.0
1979-03-08 15:43:44.260 ,7,1,13.,24.0,0.,24.0,1.,24.0,0.,24.0
1979-03-08 15:44:08.260 ,6,1,10.,24.0,0.,24.0,2.,24.0,0.,24.0
1979-03-08 15:44:32.260 ,5,1,48.,24.0,4.,24.0,2.,24.0,0.,24.0
1979-03-08 15:44:56.260 ,4,1,172.,24.0,30.,24.0,1.,24.0,0.,24.0
1979-03-08 15:45:20.260 ,3,1,244.,24.0,108.,24.0,0.,24.0,0.,24.0
1979-03-08 15:45:44.260 ,2,1,7.,24.0,1.,24.0,1.,24.0,0.,24.0
1979-03-08 15:46:08.260 ,1,1,3.,24.0,0.,24.0,1.,24.0,0.,24.0
1979-03-08 15:46:32.260 ,0,1,0.,24.0,0.,24.0,0.,24.0,0.,24.0
1979-03-08 15:46:56.260 ,0,1,0.,24.0,0.,24.0,0.,24.0,0.,24.0
1979-03-08 15:47:20.260 ,1,1,0.,24.0,0.,24.0,0.,24.0,0.,24.0
1979-03-08 15:47:44.260 ,2,1,0.,24.0,0.,24.0,0.,24.0,0.,24.0
1979-03-08 15:48:08.260 ,3,1,0.,24.0,3.,24.0,0.,24.0,0.,24.0
1979-03-08 15:48:32.260 ,4,1,74.,24.0,16.,24.0,1.,24.0,0.,24.0
1979-03-08 15:48:56.260 ,5,1,104.,24.0,32.,24.0,0.,24.0,0.,24.0
1979-03-08 15:49:20.260 ,6,1,72.,24.0,46.,24.0,1.,24.0,0.,24.0
1979-03-08 15:49:44.260 ,7,1,4.,24.0,0.,24.0,0.,24.0,0.,24.0
1979-03-08 15:50:08.260 ,7,1,12.,24.0,0.,24.0,0.,24.0,0.,24.0
1979-03-08 15:50:32.260 ,6,1,8.,24.0,0.,24.0,0.,24.0,0.,24.0
1979-03-08 15:50:56.260 ,5,1,6.,24.0,7.,24.0,0.,24.0,0.,24.0
1979-03-08 15:51:20.260 ,4,1,21.,24.0,0.,24.0,0.,24.0,0.,24.0
1979-03-08 15:51:44.260 ,3,1,1.,24.0,0.,24.0,0.,24.0,0.,24.0
1979-03-08 15:52:08.260 ,2,1,0.,24.0,1.,24.0,0.,24.0,0.,24.0
1979-03-08 15:52:32.260 ,1,1,0.,24.0,2.,24.0,0.,24.0,0.,24.0
1979-03-08 15:52:56.260 ,0,1,0.,24.0,0.,24.0,2.,24.0,0.,24.0
1979-03-08 15:53:20.260 ,0,1,0.,24.0,0.,24.0,0.,24.0,0.,24.0
1979-03-08 15:53:44.260 ,1,1,0.,24.0,0.,24.0,0.,24.0,0.,24.0
1979-03-08 15:54:08.260 ,2,1,0.,24.0,0.,24.0,0.,24.0,0.,24.0
1979-03-08 15:54:32.260 ,3,1,1.,24.0,0.,24.0,0.,24.0,0.,24.0
1979-03-08 15:54:56.260 ,4,1,0.,24.0,0.,24.0,0.,24.0,0.,24.0
1979-03-08 15:55:20.260 ,5,1,13.,24.0,3.,24.0,0.,24.0,0.,24.0
1979-03-08 15:55:44.260 ,6,1,88.,24.0,43.,24.0,0.,24.0,0.,24.0
1979-03-08 15:56:08.260 ,7,1,3.,24.0,0.,24.0,2.,24.0,0.,24.0
1979-03-08 15:56:32.260 ,7,1,7.,24.0,1.,24.0,0.,24.0,0.,24.0
1979-03-08 15:56:56.260 ,6,1,5.,24.0,0.,24.0,1.,24.0,0.,24.0
1979-03-08 15:57:20.260 ,5,1,7.,24.0,2.,24.0,1.,24.0,0.,24.0
1979-03-08 15:57:44.260 ,4,1,72.,24.0,15.,24.0,0.,24.0,0.,24.0
1979-03-08 15:58:08.260 ,3,1,1.,24.0,1.,24.0,0.,24.0,0.,24.0
1979-03-08 15:58:32.260 ,2,1,1.,24.0,0.,24.0,0.,24.0,0.,24.0
1979-03-08 15:58:56.260 ,1,1,1.,24.0,0.,24.0,1.,24.0,0.,24.0
1979-03-08 15:59:20.260 ,0,1,1.,24.0,0.,24.0,0.,24.0,0.,24.0
1979-03-08 15:59:44.260 ,0,1,0.,24.0,0.,24.0,0.,24.0,0.,24.0
1979-03-08 16:00:08.260 ,1,1,0.,24.0,0.,24.0,0.,24.0,0.,24.0
1979-03-08 16:00:32.260 ,2,1,0.,24.0,2.,24.0,0.,24.0,0.,24.0
1979-03-08 16:00:56.260 ,3,1,8.,24.0,4.,24.0,1.,24.0,0.,24.0
1979-03-08 16:01:20.260 ,4,1,24.,24.0,1.,24.0,0.,24.0,0.,24.0
1979-03-08 16:01:44.260 ,5,1,10.,24.0,2.,24.0,0.,24.0,0.,24.0
1979-03-08 16:02:08.260 ,6,1,21.,24.0,8.,24.0,1.,24.0,0.,24.0
1979-03-08 16:02:32.260 ,7,1,5.,24.0,5.,24.0,0.,24.0,0.,24.0
1979-03-08 16:02:56.260 ,7,1,8.,24.0,0.,24.0,0.,24.0,0.,24.0
1979-03-08 16:03:20.260 ,6,1,8.,24.0,4.,24.0,0.,24.0,0.,24.0
1979-03-08 16:03:44.260 ,5,1,22.,24.0,7.,24.0,2.,24.0,0.,24.0
1979-03-08 16:04:08.260 ,4,1,47.,24.0,28.,24.0,3.,24.0,0.,24.0
1979-03-08 16:04:32.260 ,3,1,45.,24.0,19.,24.0,3.,24.0,0.,24.0
1979-03-08 16:04:56.260 ,2,1,23.,24.0,14.,24.0,6.,24.0,0.,24.0
1979-03-08 16:05:20.260 ,1,1,13.,24.0,4.,24.0,2.,24.0,0.,24.0
1979-03-08 16:05:44.260 ,0,1,7.,24.0,0.,24.0,3.,24.0,0.,24.0
1979-03-08 16:06:08.260 ,0,1,0.,24.0,0.,24.0,3.,24.0,0.,24.0
1979-03-08 16:06:32.260 ,1,1,4.,24.0,1.,24.0,4.,24.0,0.,24.0
1979-03-08 16:06:56.260 ,2,1,13.,24.0,9.,24.0,8.,24.0,0.,24.0
1979-03-08 16:07:20.260 ,3,1,31.,24.0,12.,24.0,4.,24.0,0.,24.0
1979-03-08 16:07:44.260 ,4,1,58.,24.0,17.,24.0,12.,24.0,0.,24.0
1979-03-08 16:08:08.260 ,5,1,180.,24.0,45.,24.0,84.,24.0,0.,24.0
1979-03-08 16:08:32.260 ,6,1,16.,24.0,9.,24.0,120.,24.0,0.,24.0
1979-03-08 16:08:56.260 ,7,1,20.,24.0,6.,24.0,116.,24.0,0.,24.0
1979-03-08 16:09:20.260 ,7,1,12.,24.0,0.,24.0,92.,24.0,0.,24.0
1979-03-08 16:09:44.260 ,6,1,13.,24.0,3.,24.0,98.,24.0,0.,24.0
1979-03-08 16:10:08.260 ,5,1,19.,24.0,5.,24.0,92.,24.0,0.,24.0
1979-03-08 16:10:32.260 ,4,1,27.,24.0,7.,24.0,84.,24.0,0.,24.0
1979-03-08 16:10:56.260 ,3,1,15.,24.0,9.,24.0,84.,24.0,0.,24.0
1979-03-08 16:11:20.260 ,2,1,11.,24.0,6.,24.0,66.,24.0,0.,24.0
1979-03-08 16:11:44.260 ,1,1,2.,24.0,1.,24.0,80.,24.0,0.,24.0
1979-03-08 16:12:08.260 ,0,1,2.,24.0,3.,24.0,88.,24.0,0.,24.0
1979-03-08 16:12:32.260 ,0,1,7.,24.0,9.,24.0,90.,24.0,0.,24.0
1979-03-08 16:12:56.260 ,1,1,9.,24.0,1.,24.0,74.,24.0,0.,24.0
1979-03-08 16:13:20.260 ,2,1,3.,24.0,0.,24.0,72.,24.0,0.,24.0
1979-03-08 16:13:44.260 ,3,1,1.,24.0,0.,24.0,98.,24.0,0.,24.0
1979-03-08 16:14:08.260 ,4,1,11.,24.0,0.,24.0,78.,24.0,0.,24.0
1979-03-08 16:14:32.260 ,5,1,8.,24.0,4.,24.0,90.,24.0,0.,24.0
1979-03-08 16:14:56.260 ,6,1,3.,24.0,2.,24.0,33.,24.0,0.,24.0
1979-03-08 16:15:20.260 ,7,1,8.,24.0,2.,24.0,0.,24.0,0.,24.0
1979-03-08 16:15:44.260 ,7,1,7.,24.0,0.,24.0,1.,24.0,0.,24.0
1979-03-08 16:16:08.260 ,6,1,5.,24.0,2.,24.0,4.,24.0,0.,24.0
1979-03-08 16:16:32.260 ,5,1,4.,24.0,2.,24.0,26.,24.0,0.,24.0
1979-03-08 16:16:56.260 ,4,1,30.,24.0,7.,24.0,100.,24.0,0.,24.0
1979-03-08 16:17:20.260 ,3,1,196.,24.0,50.,24.0,128.,24.0,0.,24.0
1979-03-08 16:17:44.260 ,2,1,94.,24.0,15.,24.0,118.,24.0,0.,24.0
1979-03-08 16:18:08.260 ,1,1,5.,24.0,3.,24.0,136.,24.0,0.,24.0
1979-03-08 16:18:32.260 ,0,1,4.,24.0,1.,24.0,124.,24.0,0.,24.0
1979-03-08 16:18:56.260 ,0,1,0.,24.0,0.,24.0,144.,24.0,0.,24.0
1979-03-08 16:19:20.260 ,1,1,1.,24.0,0.,24.0,152.,24.0,0.,24.0
1979-03-08 16:19:44.260 ,2,1,4.,24.0,1.,24.0,156.,24.0,0.,24.0
1979-03-08 16:20:08.260 ,3,1,40.,24.0,4.,24.0,126.,24.0,0.,24.0
1979-03-08 16:20:32.260 ,4,1,68.,24.0,26.,24.0,94.,24.0,0.,24.0
1979-03-08 16:20:56.260 ,5,1,112.,24.0,26.,24.0,124.,24.0,0.,24.0
1979-03-08 16:21:20.260 ,6,1,8.,24.0,0.,24.0,102.,24.0,0.,24.0
1979-03-08 16:21:44.260 ,7,1,2.,24.0,0.,24.0,144.,24.0,0.,24.0
1979-03-08 16:22:08.260 ,7,1,15.,24.0,0.,24.0,76.,24.0,0.,24.0
1979-03-08 16:22:32.260 ,6,1,7.,24.0,0.,24.0,35.,24.0,0.,24.0
1979-03-08 16:22:56.260 ,5,1,21.,24.0,0.,24.0,34.,24.0,0.,24.0
1979-03-08 16:23:20.260 ,4,1,78.,24.0,11.,24.0,92.,24.0,0.,24.0
1979-03-08 16:23:44.260 ,3,1,224.,24.0,22.,24.0,110.,24.0,0.,24.0
1979-03-08 16:24:08.260 ,2,1,68.,24.0,19.,24.0,32.,24.0,0.,24.0
1979-03-08 16:24:32.260 ,1,1,19.,24.0,3.,24.0,96.,24.0,0.,24.0
1979-03-08 16:24:56.260 ,0,1,1.,24.0,0.,24.0,74.,24.0,0.,24.0
1979-03-08 16:25:20.260 ,0,1,0.,24.0,0.,24.0,80.,24.0,0.,24.0
1979-03-08 16:25:44.260 ,1,1,0.,24.0,0.,24.0,82.,24.0,0.,24.0
1979-03-08 16:26:08.260 ,2,1,2.,24.0,2.,24.0,76.,24.0,0.,24.0
1979-03-08 16:26:32.260 ,3,1,28.,24.0,6.,24.0,54.,24.0,0.,24.0
1979-03-08 16:26:56.260 ,4,1,82.,24.0,19.,24.0,80.,24.0,0.,24.0
1979-03-08 16:27:20.260 ,5,1,98.,24.0,8.,24.0,94.,24.0,0.,24.0
1979-03-08 16:27:44.260 ,6,1,8.,24.0,1.,24.0,70.,24.0,0.,24.0
1979-03-08 16:28:08.260 ,7,1,4.,24.0,0.,24.0,68.,24.0,0.,24.0
1979-03-08 16:28:32.260 ,7,1,16.,24.0,0.,24.0,3.,24.0,0.,24.0
1979-03-08 16:28:56.260 ,6,1,6.,24.0,0.,24.0,1.,24.0,0.,24.0
1979-03-08 16:29:20.260 ,5,1,5.,24.0,0.,24.0,30.,24.0,0.,24.0
1979-03-08 16:29:44.260 ,4,1,29.,24.0,4.,24.0,61.,24.0,0.,24.0
1979-03-08 16:30:08.260 ,3,1,78.,24.0,3.,24.0,38.,24.0,0.,24.0
1979-03-08 16:30:32.260 ,2,1,52.,24.0,11.,24.0,44.,24.0,0.,24.0
1979-03-08 16:30:56.260 ,1,1,24.,24.0,7.,24.0,51.,24.0,0.,24.0
1979-03-08 16:31:20.260 ,0,1,0.,24.0,0.,24.0,46.,24.0,0.,24.0
1979-03-08 16:31:44.260 ,0,1,0.,24.0,0.,24.0,38.,24.0,0.,24.0
1979-03-08 16:32:08.260 ,1,1,0.,24.0,0.,24.0,0.,24.0,0.,24.0
1979-03-08 16:32:32.260 ,2,1,0.,24.0,0.,24.0,0.,24.0,0.,24.0
1979-03-08 16:32:56.260 ,3,1,0.,24.0,2.,24.0,0.,24.0,0.,24.0
1979-03-08 16:33:20.260 ,4,1,0.,24.0,0.,24.0,0.,24.0,0.,24.0
1979-03-08 16:33:44.260 ,5,1,0.,24.0,0.,24.0,0.,24.0,0.,24.0
1979-03-08 16:34:08.260 ,6,1,0.,24.0,0.,24.0,2.,24.0,0.,24.0
1979-03-08 16:34:32.260 ,7,1,2.,24.0,0.,24.0,0.,24.0,0.,24.0
1979-03-08 16:34:56.260 ,7,1,6.,24.0,0.,24.0,1.,24.0,0.,24.0
1979-03-08 16:35:20.260 ,6,1,10.,24.0,0.,24.0,0.,24.0,0.,24.0
1979-03-08 16:35:44.260 ,5,1,0.,24.0,0.,24.0,0.,24.0,0.,24.0
1979-03-08 16:36:08.260 ,4,1,0.,24.0,1.,24.0,0.,24.0,0.,24.0
1979-03-08 16:36:32.260 ,3,1,4.,24.0,1.,24.0,0.,24.0,0.,24.0
1979-03-08 16:36:56.260 ,2,1,1.,24.0,0.,24.0,0.,24.0,0.,24.0
1979-03-08 16:37:20.260 ,1,1,0.,24.0,0.,24.0,0.,24.0,0.,24.0
1979-03-08 16:37:44.260 ,0,1,0.,24.0,0.,24.0,0.,24.0,0.,24.0
1979-03-08 16:38:08.260 ,0,1,0.,24.0,0.,24.0,0.,24.0,0.,24.0
1979-03-08 16:38:32.260 ,1,1,0.,24.0,0.,24.0,0.,24.0,0.,24.0
1979-03-08 16:38:56.260 ,2,1,0.,24.0,0.,24.0,0.,24.0,0.,24.0
1979-03-08 16:39:20.270 ,3,1,0.,24.0,1.,24.0,0.,24.0,0.,24.0
1979-03-08 16:39:44.270 ,4,1,4.,24.0,0.,24.0,0.,24.0,0.,24.0
1979-03-08 16:40:08.270 ,5,1,0.,24.0,0.,24.0,0.,24.0,0.,24.0
1979-03-08 16:40:32.270 ,6,1,0.,24.0,0.,24.0,1.,24.0,0.,24.0
1979-03-08 16:40:56.270 ,7,1,3.,24.0,0.,24.0,0.,24.0,0.,24.0
1979-03-08 16:41:20.270 ,7,1,9.,24.0,0.,24.0,0.,24.0,0.,24.0
1979-03-08 16:41:44.270 ,6,1,16.,24.0,0.,24.0,0.,24.0,0.,24.0
1979-03-08 16:42:08.270 ,5,1,0.,24.0,0.,24.0,0.,24.0,0.,24.0
1979-03-08 16:42:32.270 ,4,1,0.,24.0,0.,24.0,0.,24.0,0.,24.0
1979-03-08 16:42:56.270 ,3,1,1.,24.0,1.,24.0,0.,24.0,0.,24.0
1979-03-08 16:43:20.270 ,2,1,6.,24.0,2.,24.0,0.,24.0,0.,24.0
1979-03-08 16:43:44.270 ,1,1,1.,24.0,2.,24.0,0.,24.0,0.,24.0
1979-03-08 16:44:08.270 ,0,1,0.,24.0,0.,24.0,0.,24.0,0.,24.0
1979-03-08 16:44:32.270 ,0,1,0.,24.0,0.,24.0,0.,24.0,0.,24.0
1979-03-08 16:44:56.270 ,1,1,0.,24.0,0.,24.0,0.,24.0,0.,24.0
1979-03-08 16:45:20.270 ,2,1,0.,24.0,0.,24.0,0.,24.0,0.,24.0
1979-03-08 16:45:44.270 ,3,1,0.,24.0,1.,24.0,0.,24.0,0.,24.0
1979-03-08 16:46:08.270 ,4,1,1.,24.0,1.,24.0,0.,24.0,0.,24.0
1979-03-08 16:46:32.270 ,5,1,2.,24.0,0.,24.0,0.,24.0,0.,24.0
1979-03-08 16:46:56.270 ,6,1,1.,24.0,0.,24.0,0.,24.0,0.,24.0
1979-03-08 16:47:20.270 ,7,1,1.,24.0,0.,24.0,0.,24.0,0.,24.0
1979-03-08 16:47:44.270 ,7,1,6.,24.0,0.,24.0,0.,24.0,0.,24.0
1979-03-08 16:48:08.270 ,6,1,4.,24.0,0.,24.0,1.,24.0,0.,24.0
1979-03-08 16:48:32.270 ,5,1,0.,24.0,0.,24.0,0.,24.0,0.,24.0
1979-03-08 16:48:56.270 ,4,1,0.,24.0,0.,24.0,0.,24.0,0.,24.0
1979-03-08 16:49:20.270 ,3,1,0.,24.0,0.,24.0,0.,24.0,0.,24.0
1979-03-08 16:49:44.270 ,2,1,1.,24.0,0.,24.0,0.,24.0,0.,24.0
1979-03-08 16:50:08.270 ,1,1,0.,24.0,0.,24.0,0.,24.0,0.,24.0
1979-03-08 16:50:32.270 ,0,1,0.,24.0,0.,24.0,0.,24.0,0.,24.0
1979-03-08 16:50:56.270 ,0,1,0.,24.0,0.,24.0,1.,24.0,0.,24.0
1979-03-08 16:51:20.270 ,1,1,0.,24.0,0.,24.0,0.,24.0,0.,24.0
1979-03-08 16:51:44.270 ,2,1,0.,24.0,0.,24.0,0.,24.0,0.,24.0
1979-03-08 16:52:08.270 ,3,1,1.,24.0,0.,24.0,0.,24.0,0.,24.0
1979-03-08 16:52:32.270 ,4,1,3.,24.0,0.,24.0,0.,24.0,0.,24.0
1979-03-08 16:52:56.270 ,5,1,1.,24.0,0.,24.0,0.,24.0,0.,24.0
1979-03-08 16:53:20.270 ,6,1,0.,24.0,0.,24.0,0.,24.0,0.,24.0
1979-03-08 16:53:44.270 ,7,1,2.,24.0,0.,24.0,0.,24.0,0.,24.0
1979-03-08 16:54:08.270 ,7,1,11.,24.0,0.,24.0,1.,24.0,0.,24.0
1979-03-08 16:54:32.270 ,6,1,5.,24.0,0.,24.0,0.,24.0,0.,24.0
1979-03-08 16:54:56.270 ,5,1,1.,24.0,0.,24.0,0.,24.0,0.,24.0
1979-03-08 16:55:20.270 ,4,1,15.,24.0,1.,24.0,0.,24.0,0.,24.0
1979-03-08 16:55:44.270 ,3,1,27.,24.0,3.,24.0,0.,24.0,0.,24.0
1979-03-08 16:56:08.270 ,2,1,4.,24.0,1.,24.0,1.,24.0,0.,24.0
1979-03-08 16:56:32.270 ,1,1,0.,24.0,0.,24.0,0.,24.0,0.,24.0
1979-03-08 16:56:56.270 ,0,1,0.,24.0,0.,24.0,2.,24.0,0.,24.0
1979-03-08 16:57:20.270 ,0,1,0.,24.0,0.,24.0,1.,24.0,0.,24.0
1979-03-08 16:57:44.270 ,1,1,0.,24.0,0.,24.0,2.,24.0,0.,24.0
1979-03-08 16:58:08.270 ,2,1,0.,24.0,0.,24.0,9.,24.0,0.,24.0
1979-03-08 16:58:32.270 ,3,1,4.,24.0,0.,24.0,7.,24.0,0.,24.0
1979-03-08 16:58:56.270 ,4,1,5.,24.0,1.,24.0,12.,24.0,0.,24.0
1979-03-08 16:59:20.270 ,5,1,4.,24.0,0.,24.0,17.,24.0,0.,24.0
1979-03-08 16:59:44.270 ,6,1,1.,24.0,0.,24.0,28.,24.0,0.,24.0
1979-03-08 17:00:08.270 ,7,1,2.,24.0,0.,24.0,2.,24.0,0.,24.0
1979-03-08 17:00:32.270 ,7,1,11.,24.0,0.,24.0,0.,24.0,0.,24.0
1979-03-08 17:00:56.270 ,6,1,10.,24.0,0.,24.0,0.,24.0,0.,24.0
1979-03-08 17:01:20.270 ,5,1,0.,24.0,0.,24.0,0.,24.0,0.,24.0
1979-03-08 17:01:44.270 ,4,1,13.,24.0,1.,24.0,27.,24.0,0.,24.0
1979-03-08 17:02:08.270 ,3,1,35.,24.0,5.,24.0,64.,24.0,0.,24.0
1979-03-08 17:02:32.270 ,2,1,2.,24.0,0.,24.0,38.,24.0,0.,24.0
1979-03-08 17:02:56.270 ,1,1,0.,24.0,0.,24.0,35.,24.0,0.,24.0
1979-03-08 17:03:20.270 ,0,1,0.,24.0,0.,24.0,34.,24.0,0.,24.0
1979-03-08 17:03:44.270 ,0,1,0.,24.0,0.,24.0,72.,24.0,0.,24.0
1979-03-08 17:04:08.270 ,1,1,0.,24.0,0.,24.0,66.,24.0,0.,24.0
1979-03-08 17:04:32.270 ,2,1,1.,24.0,0.,24.0,82.,24.0,0.,24.0
1979-03-08 17:04:56.270 ,3,1,1.,24.0,2.,24.0,88.,24.0,0.,24.0
1979-03-08 17:05:20.270 ,4,1,38.,24.0,4.,24.0,72.,24.0,0.,24.0
1979-03-08 17:05:44.270 ,5,1,122.,24.0,3.,24.0,66.,24.0,0.,24.0
1979-03-08 17:06:08.270 ,6,1,8.,24.0,2.,24.0,66.,24.0,0.,24.0
1979-03-08 17:06:32.270 ,7,1,2.,24.0,0.,24.0,58.,24.0,0.,24.0
1979-03-08 17:06:56.270 ,7,1,4.,24.0,0.,24.0,33.,24.0,0.,24.0
1979-03-08 17:07:20.270 ,6,1,3.,24.0,0.,24.0,46.,24.0,0.,24.0
1979-03-08 17:07:44.270 ,5,1,1.,24.0,1.,24.0,58.,24.0,0.,24.0
1979-03-08 17:08:08.270 ,4,1,7.,24.0,5.,24.0,102.,24.0,0.,24.0
1979-03-08 17:08:32.270 ,3,1,13.,24.0,3.,24.0,228.,24.0,0.,24.0
1979-03-08 17:08:56.270 ,2,1,2.,24.0,0.,24.0,176.,24.0,0.,24.0
1979-03-08 17:09:20.270 ,1,1,2.,24.0,2.,24.0,212.,24.0,0.,24.0
1979-03-08 17:09:44.270 ,0,1,0.,24.0,0.,24.0,196.,24.0,0.,24.0
1979-03-08 17:10:08.270 ,0,1,0.,24.0,0.,24.0,264.,24.0,0.,24.0
1979-03-08 17:10:32.270 ,1,1,0.,24.0,0.,24.0,288.,24.0,0.,24.0
1979-03-08 17:10:56.270 ,2,1,0.,24.0,0.,24.0,264.,24.0,0.,24.0
1979-03-08 17:11:20.270 ,3,1,1.,24.0,0.,24.0,216.,24.0,0.,24.0
1979-03-08 17:11:44.270 ,4,1,5.,24.0,1.,24.0,212.,24.0,0.,24.0
1979-03-08 17:12:08.270 ,5,1,5.,24.0,1.,24.0,256.,24.0,0.,24.0
1979-03-08 17:12:32.270 ,6,1,3.,24.0,1.,24.0,280.,24.0,0.,24.0
1979-03-08 17:12:56.270 ,7,1,7.,24.0,1.,24.0,272.,24.0,0.,24.0
1979-03-08 17:13:20.270 ,7,1,5.,24.0,0.,24.0,196.,24.0,0.,24.0
1979-03-08 17:13:44.270 ,6,1,9.,24.0,1.,24.0,220.,24.0,0.,24.0
1979-03-08 17:14:08.270 ,5,1,12.,24.0,2.,24.0,244.,24.0,0.,24.0
1979-03-08 17:14:32.270 ,4,1,5.,24.0,2.,24.0,192.,24.0,0.,24.0
1979-03-08 17:14:56.270 ,3,1,7.,24.0,3.,24.0,160.,24.0,0.,24.0
1979-03-08 17:15:20.270 ,2,1,1.,24.0,0.,24.0,132.,24.0,0.,24.0
1979-03-08 17:15:44.270 ,1,1,0.,24.0,0.,24.0,50.,24.0,0.,24.0
1979-03-08 17:16:08.270 ,0,1,0.,24.0,0.,24.0,12.,24.0,0.,24.0
1979-03-08 17:16:32.270 ,0,1,1.,24.0,0.,24.0,0.,24.0,0.,24.0
1979-03-08 17:16:56.270 ,1,1,0.,24.0,0.,24.0,0.,24.0,0.,24.0
1979-03-08 17:17:20.270 ,2,1,0.,24.0,0.,24.0,0.,24.0,0.,24.0
1979-03-08 17:17:44.270 ,3,1,0.,24.0,0.,24.0,0.,24.0,0.,24.0
1979-03-08 17:18:08.270 ,4,1,0.,24.0,0.,24.0,0.,24.0,0.,24.0
1979-03-08 17:18:32.270 ,5,1,2.,24.0,1.,24.0,0.,24.0,0.,24.0
1979-03-08 17:18:56.270 ,6,1,0.,24.0,0.,24.0,0.,24.0,0.,24.0
1979-03-08 17:19:20.270 ,7,1,2.,24.0,0.,24.0,0.,24.0,0.,24.0
1979-03-08 17:19:44.270 ,7,1,9.,24.0,0.,24.0,0.,24.0,0.,24.0
1979-03-08 17:20:08.270 ,6,1,5.,24.0,0.,24.0,1.,24.0,0.,24.0
1979-03-08 17:20:32.270 ,5,1,0.,24.0,1.,24.0,0.,24.0,0.,24.0
1979-03-08 17:20:56.270 ,4,1,1.,24.0,0.,24.0,0.,24.0,0.,24.0
1979-03-08 17:21:20.270 ,3,1,0.,24.0,0.,24.0,0.,24.0,0.,24.0
1979-03-08 17:21:44.270 ,2,1,0.,24.0,0.,24.0,0.,24.0,0.,24.0
1979-03-08 17:22:08.270 ,1,1,0.,24.0,0.,24.0,0.,24.0,0.,24.0
1979-03-08 17:22:32.270 ,0,1,0.,24.0,0.,24.0,0.,24.0,0.,24.0
1979-03-08 17:22:56.270 ,0,1,0.,24.0,1.,24.0,0.,24.0,0.,24.0
1979-03-08 17:23:20.270 ,1,1,0.,24.0,0.,24.0,0.,24.0,0.,24.0
1979-03-08 17:23:44.270 ,2,1,1.,24.0,0.,24.0,0.,24.0,0.,24.0
1979-03-08 17:24:08.270 ,3,1,0.,24.0,1.,24.0,0.,24.0,0.,24.0
1979-03-08 17:24:32.270 ,0,0,0.,24.0,0.,24.0,0.,24.0,0.,24.0
1979-03-08 17:26:55.070 ,0,0,,0,,0,,0,,0
1979-03-08 17:26:56.270 ,0,0,0.,24.0,0.,24.0,0.,24.0,0.,24.0
1979-03-08 17:27:20.270 ,4,1,0.,24.0,0.,24.0,0.,24.0,0.,24.0
1979-03-08 17:27:44.270 ,3,1,0.,24.0,0.,24.0,1.,24.0,0.,24.0
1979-03-08 17:28:08.270 ,2,1,2.,24.0,0.,24.0,0.,24.0,0.,24.0
1979-03-08 17:28:32.270 ,1,1,0.,24.0,2.,24.0,0.,24.0,0.,24.0
1979-03-08 17:28:56.270 ,0,1,0.,24.0,0.,24.0,0.,24.0,0.,24.0
1979-03-08 17:29:20.270 ,0,1,0.,24.0,0.,24.0,1.,24.0,0.,24.0
1979-03-08 17:29:44.270 ,1,1,0.,24.0,0.,24.0,0.,24.0,0.,24.0
1979-03-08 17:30:08.270 ,2,1,0.,24.0,1.,24.0,0.,24.0,0.,24.0
1979-03-08 17:30:32.270 ,3,1,3.,24.0,1.,24.0,1.,24.0,0.,24.0
1979-03-08 17:30:56.270 ,4,1,0.,24.0,0.,24.0,1.,24.0,0.,24.0
1979-03-08 17:31:20.270 ,5,1,0.,24.0,1.,24.0,1.,24.0,0.,24.0
1979-03-08 17:31:44.270 ,6,1,0.,24.0,1.,24.0,0.,24.0,0.,24.0
1979-03-08 17:32:08.270 ,7,1,3.,24.0,0.,24.0,1.,24.0,0.,24.0
1979-03-08 17:32:32.270 ,7,1,10.,24.0,0.,24.0,0.,24.0,0.,24.0
1979-03-08 17:32:56.270 ,6,1,4.,24.0,0.,24.0,0.,24.0,0.,24.0
1979-03-08 17:33:20.270 ,5,1,0.,24.0,0.,24.0,0.,24.0,0.,24.0
1979-03-08 17:33:44.270 ,4,1,0.,24.0,0.,24.0,1.,24.0,0.,24.0
1979-03-08 17:34:08.270 ,3,1,1.,24.0,1.,24.0,0.,24.0,0.,24.0
1979-03-08 17:34:32.270 ,2,1,3.,24.0,0.,24.0,0.,24.0,0.,24.0